7 * 24
多渠道服务支持
KUIPER-00409,NORAD编号68925,是蓝色起源柯伊伯卫星互联网项目的测试卫星之一,由蓝色起源为亚马逊柯伊伯星座项目研制。该项目计划部署超3000颗卫星,为全球提供高速低延迟宽带互联网服务。KUIPER-00409承担星座技术验证任务,测试卫星通信、轨道运行等关键技术,为后续大规模组网铺路。作为柯伊伯星座早期部署的卫星,它的在轨表现对项目推进具有重要试验意义,助力亚马逊太空互联网基础设施建设。
美国
(US)
| 数据来源 | 国际轨道数据 |
| 星历时间: | 2026-05-24T12:00:02+0800 1天前 查看轨道信息 |
| 半长轴: | 6841.594km |
| 偏心率: | 0.0008162 |
| 轨道倾角: | 51.874° |
| 近地点辐角 | 63.615° |
| 升交点赤经 | 183.521° |
| 平近点角 | 54.341° |
| 近地点: | 457.872km |
| 远地点: | 469.042km |
| 周期: | 93.863分钟 |
| 每日圈数: | 15.341465 |